Time,TemperatureF,DewpointF,PressureIn,WindDirection,WindDirectionDegrees,WindSpeedMPH,WindSpeedGustMPH,Humidity,HourlyPrecipIn,Conditions,Clouds,dailyrainin,SoftwareType,DateUTC
2015-04-26 00:42:00,24.0,21.0,-100.00,NE,47,17.0,23.0,87,-99.99,,,-99.99,,2015-04-26 06:42:00,
2015-04-26 00:51:00,24.0,21.0,-100.00,NE,47,17.0,23.0,87,-99.99,,,-99.99,,2015-04-26 06:51:00,
2015-04-26 01:21:00,24.0,22.0,-100.00,ENE,66,7.0,21.0,93,-99.99,,,-99.99,,2015-04-26 07:21:00,
2015-04-26 01:31:00,24.0,22.0,-100.00,ENE,66,7.0,21.0,93,-99.99,,,-99.99,,2015-04-26 07:31:00,
2015-04-26 01:42:00,24.0,22.0,-100.00,ENE,66,7.0,21.0,93,-99.99,,,-99.99,,2015-04-26 07:42:00,
2015-04-26 01:51:00,24.0,22.0,-100.00,ENE,66,7.0,21.0,93,-99.99,,,-99.99,,2015-04-26 07:51:00,
2015-04-26 02:21:00,24.0,22.0,-100.00,ENE,72,10.0,20.0,91,-99.99,,,-99.99,,2015-04-26 08:21:00,
2015-04-26 02:31:00,24.0,22.0,-100.00,ENE,72,10.0,20.0,91,-99.99,,,-99.99,,2015-04-26 08:31:00,
2015-04-26 02:41:00,24.0,22.0,-100.00,ENE,72,10.0,20.0,91,-99.99,,,-99.99,,2015-04-26 08:41:00,
2015-04-26 02:51:00,24.0,22.0,-100.00,ENE,72,10.0,20.0,91,-99.99,,,-99.99,,2015-04-26 08:51:00,
2015-04-26 03:21:00,24.0,23.0,-100.00,ENE,74,5.0,18.0,95,-99.99,,,-99.99,,2015-04-26 09:21:00,
2015-04-26 03:31:00,24.0,23.0,-100.00,ENE,74,5.0,18.0,95,-99.99,,,-99.99,,2015-04-26 09:31:00,
2015-04-26 03:41:00,24.0,23.0,-100.00,ENE,74,5.0,18.0,95,-99.99,,,-99.99,,2015-04-26 09:41:00,
2015-04-26 03:51:00,24.0,23.0,-100.00,ENE,74,5.0,18.0,95,-99.99,,,-99.99,,2015-04-26 09:51:00,
2015-04-26 04:41:00,23.0,22.0,-100.00,East,81,6.0,14.0,96,-99.99,,,-99.99,,2015-04-26 10:41:00,
2015-04-26 04:51:00,23.0,22.0,-100.00,East,81,6.0,14.0,96,-99.99,,,-99.99,,2015-04-26 10:51:00,
2015-04-26 05:42:00,23.0,22.0,-100.00,NNE,29,3.0,10.0,95,-99.99,,,-99.99,,2015-04-26 11:42:00,
2015-04-26 05:51:00,23.0,22.0,-100.00,NNE,29,3.0,10.0,95,-99.99,,,-99.99,,2015-04-26 11:51:00,
2015-04-26 06:42:00,23.0,22.0,-100.00,NE,55,6.0,8.0,95,-99.99,,,-99.99,,2015-04-26 12:42:00,
2015-04-26 06:51:00,23.0,22.0,-100.00,NE,55,6.0,8.0,95,-99.99,,,-99.99,,2015-04-26 12:51:00,
2015-04-26 07:41:00,23.0,22.0,-100.00,ENE,77,6.0,9.0,95,-99.99,,,-99.99,,2015-04-26 13:41:00,
2015-04-26 07:51:00,23.0,22.0,-100.00,ENE,77,6.0,9.0,95,-99.99,,,-99.99,,2015-04-26 13:51:00,
2015-04-26 08:21:00,24.0,23.0,-100.00,East,94,5.0,7.0,94,-99.99,,,-99.99,,2015-04-26 14:21:00,
2015-04-26 08:31:00,24.0,23.0,-100.00,East,94,5.0,7.0,94,-99.99,,,-99.99,,2015-04-26 14:31:00,
2015-04-26 08:41:00,24.0,23.0,-100.00,East,94,5.0,7.0,94,-99.99,,,-99.99,,2015-04-26 14:41:00,
2015-04-26 08:51:00,24.0,23.0,-100.00,East,94,5.0,7.0,94,-99.99,,,-99.99,,2015-04-26 14:51:00,
2015-04-26 09:21:00,25.0,24.0,-100.00,East,96,3.0,8.0,94,-99.99,,,-99.99,,2015-04-26 15:21:00,
2015-04-26 09:31:00,25.0,24.0,-100.00,East,96,3.0,8.0,94,-99.99,,,-99.99,,2015-04-26 15:31:00,
2015-04-26 09:41:00,25.0,24.0,-100.00,East,96,3.0,8.0,94,-99.99,,,-99.99,,2015-04-26 15:41:00,
2015-04-26 09:51:00,25.0,24.0,-100.00,East,96,3.0,8.0,94,-99.99,,,-99.99,,2015-04-26 15:51:00,
2015-04-26 10:41:00,27.0,25.0,-100.00,East,82,1.0,6.0,92,-99.99,,,-99.99,,2015-04-26 16:41:00,
2015-04-26 10:52:00,27.0,25.0,-100.00,East,82,1.0,6.0,92,-99.99,,,-99.99,,2015-04-26 16:52:00,
2015-04-26 11:42:00,29.0,26.0,-100.00,East,100,2.0,7.0,89,-99.99,,,-99.99,,2015-04-26 17:42:00,
2015-04-26 11:51:00,29.0,26.0,-100.00,East,100,2.0,7.0,89,-99.99,,,-99.99,,2015-04-26 17:51:00,
2015-04-26 12:21:00,29.0,25.0,-100.00,WNW,285,4.0,5.0,86,-99.99,,,-99.99,,2015-04-26 18:21:00,
2015-04-26 12:32:00,29.0,25.0,-100.00,WNW,285,4.0,5.0,86,-99.99,,,-99.99,,2015-04-26 18:32:00,
2015-04-26 12:42:00,29.0,25.0,-100.00,WNW,285,4.0,5.0,86,-99.99,,,-99.99,,2015-04-26 18:42:00,
2015-04-26 12:52:00,29.0,25.0,-100.00,WNW,285,4.0,5.0,86,-99.99,,,-99.99,,2015-04-26 18:52:00,
2015-04-26 13:42:00,26.0,23.0,-100.00,WNW,286,7.0,9.0,89,-99.99,,,-99.99,,2015-04-26 19:42:00,
2015-04-26 13:51:00,26.0,23.0,-100.00,WNW,286,7.0,9.0,89,-99.99,,,-99.99,,2015-04-26 19:51:00,
2015-04-26 14:21:00,30.0,26.0,-100.00,WNW,302,5.0,9.0,86,-99.99,,,-99.99,,2015-04-26 20:21:00,
2015-04-26 14:31:00,30.0,26.0,-100.00,WNW,302,5.0,9.0,86,-99.99,,,-99.99,,2015-04-26 20:31:00,
2015-04-26 14:41:00,30.0,26.0,-100.00,WNW,302,5.0,9.0,86,-99.99,,,-99.99,,2015-04-26 20:41:00,
2015-04-26 14:51:00,30.0,26.0,-100.00,WNW,302,5.0,9.0,86,-99.99,,,-99.99,,2015-04-26 20:51:00,
2015-04-26 15:21:00,30.0,27.0,-100.00,NW,325,3.0,10.0,87,-99.99,,,-99.99,,2015-04-26 21:21:00,
2015-04-26 15:31:00,30.0,27.0,-100.00,NW,325,3.0,10.0,87,-99.99,,,-99.99,,2015-04-26 21:31:00,
2015-04-26 15:41:00,30.0,27.0,-100.00,NW,325,3.0,10.0,87,-99.99,,,-99.99,,2015-04-26 21:41:00,
2015-04-26 15:51:00,30.0,27.0,-100.00,NW,325,3.0,10.0,87,-99.99,,,-99.99,,2015-04-26 21:51:00,
2015-04-26 16:21:00,29.0,26.0,-100.00,WNW,295,8.0,12.0,89,-99.99,,,-99.99,,2015-04-26 22:21:00,
2015-04-26 16:31:00,29.0,26.0,-100.00,WNW,295,8.0,12.0,89,-99.99,,,-99.99,,2015-04-26 22:31:00,
2015-04-26 16:41:00,29.0,26.0,-100.00,WNW,295,8.0,12.0,89,-99.99,,,-99.99,,2015-04-26 22:41:00,
2015-04-26 16:51:00,29.0,26.0,-100.00,WNW,295,8.0,12.0,89,-99.99,,,-99.99,,2015-04-26 22:51:00,
2015-04-26 17:42:00,29.0,26.0,-100.00,WNW,294,5.0,11.0,90,-99.99,,,-99.99,,2015-04-26 23:42:00,
2015-04-26 17:51:00,29.0,26.0,-100.00,WNW,294,5.0,11.0,90,-99.99,,,-99.99,,2015-04-26 23:51:00,
2015-04-26 18:41:00,27.0,25.0,-100.00,WNW,290,10.0,15.0,93,-99.99,,,-99.99,,2015-04-27 00:41:00,
2015-04-26 18:51:00,27.0,25.0,-100.00,WNW,290,10.0,15.0,93,-99.99,,,-99.99,,2015-04-27 00:51:00,
2015-04-26 19:42:00,26.0,25.0,-100.00,NW,307,10.0,17.0,97,-99.99,,,-99.99,,2015-04-27 01:42:00,
2015-04-26 19:51:00,26.0,25.0,-100.00,NW,307,10.0,17.0,97,-99.99,,,-99.99,,2015-04-27 01:51:00,
2015-04-26 20:21:00,25.0,24.0,-100.00,NW,308,15.0,19.0,96,-99.99,,,-99.99,,2015-04-27 02:21:00,
2015-04-26 20:31:00,25.0,24.0,-100.00,NW,308,15.0,19.0,96,-99.99,,,-99.99,,2015-04-27 02:31:00,
2015-04-26 20:41:00,25.0,24.0,-100.00,NW,308,15.0,19.0,96,-99.99,,,-99.99,,2015-04-27 02:41:00,
2015-04-26 20:51:00,25.0,24.0,-100.00,NW,308,15.0,19.0,96,-99.99,,,-99.99,,2015-04-27 02:51:00,
2015-04-26 21:41:00,26.0,25.0,-100.00,WNW,297,11.0,17.0,97,-99.99,,,-99.99,,2015-04-27 03:41:00,
2015-04-26 21:51:00,26.0,25.0,-100.00,WNW,297,11.0,17.0,97,-99.99,,,-99.99,,2015-04-27 03:51:00,
2015-04-26 22:21:00,26.0,25.0,-100.00,NW,308,8.0,16.0,97,-99.99,,,-99.99,,2015-04-27 04:21:00,
2015-04-26 22:31:00,26.0,25.0,-100.00,NW,308,8.0,16.0,97,-99.99,,,-99.99,,2015-04-27 04:31:00,
2015-04-26 22:41:00,26.0,25.0,-100.00,NW,308,8.0,16.0,97,-99.99,,,-99.99,,2015-04-27 04:41:00,
2015-04-26 22:51:00,26.0,25.0,-100.00,NW,308,8.0,16.0,97,-99.99,,,-99.99,,2015-04-27 04:51:00,